Time,TemperatureF,DewpointF,PressureIn,WindDirection,WindDirectionDegrees,WindSpeedMPH,WindSpeedGustMPH,Humidity,HourlyPrecipIn,Conditions,Clouds,dailyrainin,SoftwareType,DateUTC
2013-01-24 00:00:00,44.6,36.0,29.41,SE,135,3.5,6.2,72,0.00,,,0.79,,2013-01-23 23:00:00,
2013-01-24 00:05:00,44.4,35.8,29.41,East,90,4.4,8.9,72,0.00,,,0.79,,2013-01-23 23:05:00,
2013-01-24 00:10:00,44.6,36.0,29.38,South,180,2.6,4.4,72,0.00,,,0.00,,2013-01-23 23:10:00,
2013-01-24 00:15:00,44.6,36.0,29.38,South,180,3.5,5.3,72,0.00,,,0.00,,2013-01-23 23:15:00,
2013-01-24 00:25:00,44.4,36.9,29.38,South,180,1.3,5.3,75,0.00,,,0.00,,2013-01-23 23:25:00,
2013-01-24 00:30:00,44.1,38.1,29.38,East,90,3.1,5.3,80,0.04,,,0.04,,2013-01-23 23:30:00,
2013-01-24 00:40:00,43.7,39.7,29.38,East,90,3.1,5.8,86,0.10,,,0.10,,2013-01-23 23:40:00,
2013-01-24 00:45:00,43.5,39.7,29.38,East,90,3.5,5.8,87,0.10,,,0.10,,2013-01-23 23:45:00,
2013-01-24 00:50:00,43.3,39.9,29.38,West,270,3.1,3.1,88,0.10,,,0.10,,2013-01-23 23:50:00,
2013-01-24 00:55:00,43.3,39.9,29.38,East,90,2.2,4.0,88,0.10,,,0.10,,2013-01-23 23:55:00,
2013-01-24 01:00:00,43.5,40.1,29.38,East,90,3.5,4.0,88,0.10,,,0.10,,2013-01-24 00:00:00,
2013-01-24 01:05:00,43.7,40.6,29.38,NE,45,1.3,1.7,89,0.11,,,0.11,,2013-01-24 00:05:00,
2013-01-24 01:10:00,43.7,40.6,29.35,East,90,1.7,2.2,89,0.00,,,0.11,,2013-01-24 00:10:00,
2013-01-24 01:15:00,43.7,40.6,29.35,East,90,3.1,3.1,89,0.00,,,0.11,,2013-01-24 00:15:00,
2013-01-24 01:20:00,43.5,40.5,29.35,East,90,1.7,5.8,89,0.00,,,0.11,,2013-01-24 00:20:00,
2013-01-24 01:25:00,43.3,40.3,29.35,East,90,1.3,2.6,89,0.00,,,0.11,,2013-01-24 00:25:00,
2013-01-24 01:30:00,43.3,40.3,29.35,East,90,1.3,1.3,89,0.00,,,0.11,,2013-01-24 00:30:00,
2013-01-24 01:35:00,43.3,40.3,29.35,East,90,3.1,3.5,89,0.00,,,0.11,,2013-01-24 00:35:00,
2013-01-24 01:40:00,43.3,40.3,29.35,East,90,3.1,3.5,89,0.00,,,0.11,,2013-01-24 00:40:00,
2013-01-24 01:45:00,43.2,40.1,29.32,East,90,1.3,3.1,89,0.00,,,0.11,,2013-01-24 00:45:00,
2013-01-24 01:50:00,43.2,39.7,29.32,East,90,3.5,5.8,88,0.00,,,0.11,,2013-01-24 00:50:00,
2013-01-24 01:55:00,43.2,39.4,29.32,East,90,3.1,4.9,87,0.00,,,0.11,,2013-01-24 00:55:00,
2013-01-24 02:00:00,43.2,39.4,29.32,South,180,2.6,5.8,87,0.00,,,0.11,,2013-01-24 01:00:00,
2013-01-24 02:05:00,43.2,39.4,29.32,South,180,1.7,1.7,87,0.00,,,0.11,,2013-01-24 01:05:00,
2013-01-24 02:10:00,43.2,39.4,29.32,South,180,3.5,3.5,87,0.00,,,0.11,,2013-01-24 01:10:00,
2013-01-24 02:15:00,43.3,39.6,29.32,East,90,3.1,3.1,87,0.00,,,0.11,,2013-01-24 01:15:00,
2013-01-24 02:20:00,43.3,39.6,29.32,East,90,2.6,4.0,87,0.00,,,0.11,,2013-01-24 01:20:00,
2013-01-24 02:25:00,43.5,39.2,29.32,East,90,4.4,5.3,85,0.00,,,0.11,,2013-01-24 01:25:00,
2013-01-24 02:30:00,43.5,39.2,29.32,South,180,3.1,4.4,85,0.00,,,0.11,,2013-01-24 01:30:00,
2013-01-24 02:35:00,43.7,39.0,29.32,East,90,2.2,3.1,84,0.00,,,0.11,,2013-01-24 01:35:00,
2013-01-24 02:40:00,43.7,39.4,29.32,SE,135,1.3,1.7,85,0.00,,,0.11,,2013-01-24 01:40:00,
2013-01-24 02:45:00,43.7,39.4,29.32,East,90,0.4,0.4,85,0.00,,,0.11,,2013-01-24 01:45:00,
2013-01-24 02:50:00,43.9,39.6,29.32,East,90,0.0,0.0,85,0.00,,,0.11,,2013-01-24 01:50:00,
2013-01-24 02:55:00,43.9,39.6,29.32,East,90,0.8,0.0,85,0.00,,,0.11,,2013-01-24 01:55:00,
2013-01-24 03:00:00,43.9,40.1,29.32,East,90,1.7,1.7,87,0.00,,,0.11,,2013-01-24 02:00:00,
2013-01-24 03:05:00,43.9,40.1,29.32,NE,45,2.2,4.4,87,0.00,,,0.11,,2013-01-24 02:05:00,
2013-01-24 03:10:00,43.9,40.1,29.32,East,90,3.5,4.9,87,0.00,,,0.11,,2013-01-24 02:10:00,
2013-01-24 03:15:00,43.5,39.7,29.32,East,90,2.6,4.9,87,0.00,,,0.11,,2013-01-24 02:15:00,
2013-01-24 03:20:00,43.5,39.6,29.32,East,90,1.3,4.9,86,0.01,,,0.12,,2013-01-24 02:20:00,
2013-01-24 03:25:00,43.5,39.6,29.32,East,90,1.3,1.3,86,0.03,,,0.14,,2013-01-24 02:25:00,
2013-01-24 03:30:00,43.3,39.6,29.32,East,90,3.1,3.1,87,0.04,,,0.15,,2013-01-24 02:30:00,
2013-01-24 03:35:00,43.3,39.6,29.32,NE,45,0.0,0.4,87,0.04,,,0.15,,2013-01-24 02:35:00,
2013-01-24 03:40:00,43.3,39.6,29.32,North,0,0.8,3.1,87,0.04,,,0.15,,2013-01-24 02:40:00,
2013-01-24 03:45:00,43.3,39.6,29.32,North,0,1.3,4.4,87,0.05,,,0.16,,2013-01-24 02:45:00,
2013-01-24 03:50:00,43.3,39.6,29.32,East,90,0.8,4.4,87,0.05,,,0.16,,2013-01-24 02:50:00,
2013-01-24 03:55:00,43.3,39.9,29.32,East,90,1.3,2.6,88,0.05,,,0.16,,2013-01-24 02:55:00,
2013-01-24 04:05:00,43.3,39.9,29.29,East,90,0.4,0.8,88,0.06,,,0.17,,2013-01-24 03:05:00,
2013-01-24 04:10:00,43.2,40.1,29.29,South,180,0.8,1.7,89,0.00,,,0.17,,2013-01-24 03:10:00,
2013-01-24 04:15:00,43.2,40.1,29.29,East,90,1.3,1.3,89,0.00,,,0.17,,2013-01-24 03:15:00,
2013-01-24 04:20:00,43.2,40.1,29.29,East,90,0.8,0.8,89,0.01,,,0.18,,2013-01-24 03:20:00,
2013-01-24 04:25:00,43.2,40.3,29.29,East,90,0.8,2.2,90,0.01,,,0.18,,2013-01-24 03:25:00,
2013-01-24 04:30:00,43.2,40.6,29.29,East,90,1.7,5.3,91,0.02,,,0.19,,2013-01-24 03:30:00,
2013-01-24 04:35:00,43.2,40.6,29.29,East,90,2.2,3.1,91,0.02,,,0.19,,2013-01-24 03:35:00,
2013-01-24 04:40:00,43.2,40.6,29.29,East,90,1.7,2.6,91,0.04,,,0.21,,2013-01-24 03:40:00,
2013-01-24 04:45:00,43.0,40.5,29.29,NE,45,1.7,3.5,91,0.04,,,0.21,,2013-01-24 03:45:00,
2013-01-24 04:50:00,43.0,40.5,29.29,North,0,0.4,0.8,91,0.04,,,0.21,,2013-01-24 03:50:00,
2013-01-24 04:55:00,43.0,40.5,29.29,East,90,0.8,1.3,91,0.04,,,0.21,,2013-01-24 03:55:00,
2013-01-24 05:00:00,42.8,40.5,29.29,South,180,0.8,2.6,92,0.04,,,0.21,,2013-01-24 04:00:00,
2013-01-24 05:05:00,42.8,40.5,29.29,SE,135,2.2,3.1,92,0.04,,,0.21,,2013-01-24 04:05:00,
2013-01-24 05:15:00,42.4,40.1,29.26,NE,45,2.6,4.4,92,0.00,,,0.21,,2013-01-24 04:15:00,
2013-01-24 05:20:00,42.4,40.1,29.26,East,90,2.6,6.2,92,0.00,,,0.21,,2013-01-24 04:20:00,
2013-01-24 05:25:00,42.4,40.1,29.26,East,90,2.6,5.8,92,0.00,,,0.21,,2013-01-24 04:25:00,
2013-01-24 05:30:00,42.3,39.4,29.26,NE,45,2.2,4.4,90,0.00,,,0.21,,2013-01-24 04:30:00,
2013-01-24 05:35:00,42.1,39.2,29.26,East,90,0.8,4.0,90,0.00,,,0.21,,2013-01-24 04:35:00,
2013-01-24 05:40:00,41.9,39.4,29.26,North,0,2.2,3.5,91,0.00,,,0.21,,2013-01-24 04:40:00,
2013-01-24 05:50:00,41.7,39.6,29.26,NE,45,0.8,1.7,92,0.00,,,0.21,,2013-01-24 04:50:00,
2013-01-24 05:55:00,41.7,39.6,29.26,NE,45,2.2,4.0,92,0.00,,,0.21,,2013-01-24 04:55:00,
2013-01-24 06:00:00,41.7,39.6,29.26,East,90,1.7,2.6,92,0.00,,,0.21,,2013-01-24 05:00:00,
2013-01-24 06:10:00,41.9,39.7,29.26,East,90,0.8,1.7,92,0.00,,,0.21,,2013-01-24 05:10:00,
2013-01-24 06:15:00,41.9,39.7,29.26,East,90,1.3,0.0,92,0.00,,,0.21,,2013-01-24 05:15:00,
2013-01-24 06:20:00,41.9,39.7,29.26,East,90,0.8,0.0,92,0.00,,,0.21,,2013-01-24 05:20:00,
2013-01-24 06:25:00,41.9,39.7,29.26,East,90,1.7,1.7,92,0.00,,,0.21,,2013-01-24 05:25:00,
2013-01-24 06:30:00,41.9,39.7,29.26,NE,45,1.7,4.0,92,0.00,,,0.21,,2013-01-24 05:30:00,
2013-01-24 06:35:00,42.1,39.9,29.26,East,90,1.7,4.0,92,0.00,,,0.21,,2013-01-24 05:35:00,
2013-01-24 06:40:00,42.3,40.1,29.26,ENE,67,2.2,3.1,92,0.00,,,0.21,,2013-01-24 05:40:00,
2013-01-24 06:45:00,42.3,40.3,29.26,NE,45,1.7,1.7,93,0.00,,,0.21,,2013-01-24 05:45:00,
2013-01-24 06:55:00,42.3,40.1,29.26,East,90,2.6,3.1,92,0.00,,,0.21,,2013-01-24 05:55:00,
2013-01-24 07:00:00,42.3,40.1,29.26,NE,45,0.4,2.2,92,0.00,,,0.21,,2013-01-24 06:00:00,
2013-01-24 07:10:00,42.3,40.1,29.29,North,0,1.3,1.3,92,0.00,,,0.21,,2013-01-24 06:10:00,
2013-01-24 07:15:00,42.3,40.1,29.26,NE,45,0.8,3.1,92,0.00,,,0.21,,2013-01-24 06:15:00,
2013-01-24 07:20:00,42.1,39.9,29.26,NE,45,1.7,3.1,92,0.00,,,0.21,,2013-01-24 06:20:00,
2013-01-24 07:25:00,42.1,39.9,29.26,NE,45,1.7,3.1,92,0.00,,,0.21,,2013-01-24 06:25:00,
2013-01-24 07:30:00,41.9,39.7,29.26,East,90,2.2,2.2,92,0.00,,,0.21,,2013-01-24 06:30:00,
2013-01-24 07:35:00,41.7,39.6,29.26,East,90,1.3,2.6,92,0.00,,,0.21,,2013-01-24 06:35:00,
2013-01-24 07:40:00,41.5,39.4,29.26,East,90,2.2,4.0,92,0.00,,,0.21,,2013-01-24 06:40:00,
2013-01-24 07:45:00,41.5,39.4,29.26,East,90,2.2,3.1,92,0.00,,,0.21,,2013-01-24 06:45:00,
2013-01-24 07:50:00,41.5,39.4,29.26,North,0,2.2,2.6,92,0.00,,,0.21,,2013-01-24 06:50:00,
2013-01-24 07:55:00,41.5,39.4,29.26,North,0,3.1,3.1,92,0.00,,,0.21,,2013-01-24 06:55:00,
2013-01-24 08:00:00,41.5,39.4,29.26,NE,45,3.1,4.4,92,0.00,,,0.21,,2013-01-24 07:00:00,
2013-01-24 08:05:00,41.7,39.6,29.26,NE,45,2.2,4.0,92,0.00,,,0.21,,2013-01-24 07:05:00,
2013-01-24 08:10:00,41.7,39.6,29.26,East,90,3.1,4.9,92,0.00,,,0.21,,2013-01-24 07:10:00,
2013-01-24 08:15:00,41.7,39.7,29.26,North,0,1.7,3.1,93,0.00,,,0.21,,2013-01-24 07:15:00,
2013-01-24 08:20:00,41.9,39.9,29.26,ENE,67,1.7,1.7,93,0.00,,,0.21,,2013-01-24 07:20:00,
2013-01-24 08:25:00,42.1,40.5,29.29,North,0,0.4,0.8,94,0.00,,,0.21,,2013-01-24 07:25:00,
2013-01-24 08:30:00,42.3,40.8,29.29,West,270,0.0,0.0,95,0.00,,,0.21,,2013-01-24 07:30:00,
2013-01-24 08:40:00,42.6,41.2,29.29,NE,45,1.3,2.6,95,0.00,,,0.21,,2013-01-24 07:40:00,
2013-01-24 08:45:00,42.8,41.4,29.29,East,90,3.1,3.5,95,0.00,,,0.21,,2013-01-24 07:45:00,
2013-01-24 08:50:00,43.0,40.5,29.29,NE,45,2.2,6.2,91,0.00,,,0.21,,2013-01-24 07:50:00,
2013-01-24 08:55:00,43.3,40.8,29.26,ENE,67,2.2,2.2,91,0.00,,,0.21,,2013-01-24 07:55:00,
2013-01-24 09:00:00,43.3,40.5,29.26,ESE,112,2.2,3.5,90,0.00,,,0.21,,2013-01-24 08:00:00,
2013-01-24 09:05:00,43.5,40.5,29.26,East,90,1.7,2.2,89,0.00,,,0.21,,2013-01-24 08:05:00,
2013-01-24 09:10:00,43.9,40.1,29.26,NE,45,1.7,1.7,87,0.00,,,0.21,,2013-01-24 08:10:00,
2013-01-24 09:15:00,44.2,40.5,29.26,East,90,0.8,1.7,87,0.00,,,0.21,,2013-01-24 08:15:00,
2013-01-24 09:20:00,45.0,40.1,29.26,South,180,3.1,4.4,83,0.00,,,0.21,,2013-01-24 08:20:00,
2013-01-24 09:25:00,44.8,38.8,29.26,North,0,2.2,2.2,80,0.00,,,0.21,,2013-01-24 08:25:00,
2013-01-24 09:30:00,46.8,40.1,29.26,North,0,0.4,1.7,78,0.00,,,0.21,,2013-01-24 08:30:00,
2013-01-24 09:35:00,48.4,39.0,29.29,SE,135,2.2,2.6,70,0.00,,,0.21,,2013-01-24 08:35:00,
2013-01-24 09:40:00,49.5,38.8,29.29,ESE,112,1.7,3.1,67,0.00,,,0.21,,2013-01-24 08:40:00,
2013-01-24 09:45:00,49.5,38.8,29.26,NE,45,2.2,3.1,67,0.00,,,0.21,,2013-01-24 08:45:00,
2013-01-24 09:50:00,49.6,38.3,29.26,East,90,2.2,4.0,65,0.00,,,0.21,,2013-01-24 08:50:00,
2013-01-24 09:55:00,49.6,38.3,29.26,East,90,1.3,4.0,65,0.00,,,0.21,,2013-01-24 08:55:00,
2013-01-24 10:00:00,49.6,38.3,29.26,East,90,1.3,4.0,65,0.00,,,0.21,,2013-01-24 09:00:00,
2013-01-24 10:05:00,49.6,38.3,29.26,East,90,0.8,4.0,65,0.00,,,0.21,,2013-01-24 09:05:00,
2013-01-24 10:10:00,49.6,38.3,29.26,East,90,1.7,4.0,65,0.00,,,0.21,,2013-01-24 09:10:00,
2013-01-24 10:15:00,50.2,37.6,29.29,East,90,3.5,3.5,62,0.00,,,0.21,,2013-01-24 09:15:00,
2013-01-24 10:20:00,50.2,37.2,29.29,ENE,67,3.5,4.0,61,0.00,,,0.21,,2013-01-24 09:20:00,
2013-01-24 10:25:00,49.5,37.2,29.29,ESE,112,1.7,2.6,63,0.00,,,0.21,,2013-01-24 09:25:00,
2013-01-24 10:30:00,49.5,37.8,29.29,South,180,2.2,2.6,64,0.00,,,0.21,,2013-01-24 09:30:00,
2013-01-24 10:40:00,49.5,37.8,29.26,South,180,1.7,1.7,64,0.00,,,0.21,,2013-01-24 09:40:00,
2013-01-24 10:45:00,49.3,37.6,29.29,NE,45,2.2,4.0,64,0.00,,,0.21,,2013-01-24 09:45:00,
2013-01-24 10:50:00,49.6,37.9,29.29,NE,45,1.3,4.0,64,0.00,,,0.21,,2013-01-24 09:50:00,
2013-01-24 10:55:00,50.2,37.9,29.29,North,0,2.6,3.1,63,0.00,,,0.21,,2013-01-24 09:55:00,
2013-01-24 11:00:00,50.2,37.9,29.29,SE,135,1.3,2.6,63,0.00,,,0.21,,2013-01-24 10:00:00,
2013-01-24 11:05:00,50.2,37.6,29.29,NE,45,2.2,3.1,62,0.00,,,0.21,,2013-01-24 10:05:00,
2013-01-24 11:10:00,49.8,37.6,29.29,NE,45,4.4,7.6,63,0.00,,,0.21,,2013-01-24 10:10:00,
2013-01-24 11:15:00,49.1,37.4,29.29,NE,45,2.6,4.0,64,0.00,,,0.21,,2013-01-24 10:15:00,
2013-01-24 11:20:00,48.9,37.2,29.29,East,90,0.4,5.3,64,0.00,,,0.21,,2013-01-24 10:20:00,
2013-01-24 11:25:00,49.5,38.5,29.29,North,0,1.7,1.7,66,0.00,,,0.21,,2013-01-24 10:25:00,
2013-01-24 11:30:00,49.6,37.4,29.29,NE,45,2.6,2.6,63,0.00,,,0.21,,2013-01-24 10:30:00,
2013-01-24 11:35:00,50.0,37.8,29.29,NE,45,4.0,6.2,63,0.00,,,0.21,,2013-01-24 10:35:00,
2013-01-24 11:40:00,50.0,37.8,29.29,NE,45,2.2,6.2,63,0.00,,,0.21,,2013-01-24 10:40:00,
2013-01-24 11:45:00,50.7,37.2,29.29,NE,45,2.6,4.4,60,0.00,,,0.21,,2013-01-24 10:45:00,
2013-01-24 11:50:00,50.9,37.8,29.29,NE,45,0.8,4.0,61,0.00,,,0.21,,2013-01-24 10:50:00,
2013-01-24 11:55:00,51.8,37.4,29.29,East,90,2.2,3.1,58,0.00,,,0.21,,2013-01-24 10:55:00,
2013-01-24 12:00:00,51.8,37.4,29.29,North,0,2.2,3.1,58,0.00,,,0.21,,2013-01-24 11:00:00,
2013-01-24 12:05:00,55.9,38.5,29.26,NE,45,2.6,4.4,52,0.00,,,0.21,,2013-01-24 11:05:00,
2013-01-24 12:15:00,58.6,39.9,29.26,NE,45,2.2,4.4,50,0.00,,,0.21,,2013-01-24 11:15:00,
2013-01-24 12:20:00,58.5,37.0,29.26,NE,45,2.6,4.4,45,0.00,,,0.21,,2013-01-24 11:20:00,
2013-01-24 12:25:00,57.9,36.7,29.26,East,90,1.7,4.0,45,0.00,,,0.21,,2013-01-24 11:25:00,
2013-01-24 12:30:00,60.3,38.1,29.26,NW,315,1.7,1.7,44,0.00,,,0.21,,2013-01-24 11:30:00,
2013-01-24 12:35:00,59.9,37.2,29.26,NW,315,2.2,2.2,43,0.00,,,0.21,,2013-01-24 11:35:00,
2013-01-24 12:40:00,60.4,37.2,29.26,NE,45,3.1,4.4,42,0.00,,,0.21,,2013-01-24 11:40:00,
2013-01-24 12:45:00,59.7,36.5,29.26,NNE,22,2.2,2.6,42,0.00,,,0.21,,2013-01-24 11:45:00,
2013-01-24 12:50:00,60.1,36.1,29.26,NE,45,3.1,3.1,41,0.00,,,0.21,,2013-01-24 11:50:00,
2013-01-24 12:55:00,61.0,36.3,29.26,NE,45,0.4,2.6,40,0.00,,,0.21,,2013-01-24 11:55:00,
2013-01-24 13:00:00,61.7,36.3,29.26,NW,315,2.6,3.1,39,0.00,,,0.21,,2013-01-24 12:00:00,
2013-01-24 13:05:00,61.9,36.0,29.26,North,0,2.6,4.9,38,0.00,,,0.21,,2013-01-24 12:05:00,
2013-01-24 13:10:00,61.0,34.3,29.26,North,0,2.2,2.2,37,0.00,,,0.21,,2013-01-24 12:10:00,
2013-01-24 13:15:00,58.5,33.4,29.26,NW,315,3.1,3.5,39,0.00,,,0.21,,2013-01-24 12:15:00,
2013-01-24 13:20:00,55.9,33.6,29.26,NW,315,4.0,5.3,43,0.00,,,0.21,,2013-01-24 12:20:00,
2013-01-24 13:25:00,56.5,35.8,29.26,NE,45,2.2,3.5,46,0.00,,,0.21,,2013-01-24 12:25:00,
2013-01-24 13:30:00,58.3,35.8,29.26,WNW,292,3.5,3.5,43,0.00,,,0.21,,2013-01-24 12:30:00,
2013-01-24 13:35:00,61.0,38.3,29.26,NW,315,1.7,1.7,43,0.00,,,0.21,,2013-01-24 12:35:00,
2013-01-24 13:40:00,60.1,36.9,29.26,East,90,4.0,4.0,42,0.00,,,0.21,,2013-01-24 12:40:00,
2013-01-24 13:45:00,58.5,36.0,29.23,East,90,3.5,3.5,43,0.00,,,0.21,,2013-01-24 12:45:00,
2013-01-24 13:50:00,60.1,37.4,29.23,East,90,2.6,3.1,43,0.00,,,0.21,,2013-01-24 12:50:00,
2013-01-24 13:55:00,63.1,38.3,29.23,East,90,0.4,3.1,40,0.00,,,0.21,,2013-01-24 12:55:00,
2013-01-24 14:05:00,60.8,36.9,29.23,NE,45,2.2,4.4,41,0.00,,,0.21,,2013-01-24 13:05:00,
2013-01-24 14:10:00,57.7,34.7,29.23,East,90,4.0,6.2,42,0.00,,,0.21,,2013-01-24 13:10:00,
2013-01-24 14:15:00,57.7,34.7,29.23,East,90,4.0,6.2,42,0.00,,,0.21,,2013-01-24 13:15:00,
2013-01-24 14:20:00,55.2,36.9,29.23,NE,45,4.9,6.7,50,0.00,,,0.21,,2013-01-24 13:20:00,
2013-01-24 14:25:00,56.3,38.8,29.23,East,90,4.4,4.4,52,0.00,,,0.21,,2013-01-24 13:25:00,
2013-01-24 14:31:00,57.6,37.4,29.23,ENE,67,3.1,3.1,47,0.00,,,0.21,,2013-01-24 13:31:00,
2013-01-24 14:40:00,59.4,36.7,29.23,East,90,3.5,3.5,43,0.00,,,0.21,,2013-01-24 13:40:00,
2013-01-24 14:46:00,61.5,37.6,29.23,NE,45,1.3,5.8,41,0.00,,,0.21,,2013-01-24 13:46:00,
2013-01-24 14:53:00,61.9,36.5,29.23,NE,45,3.5,4.4,39,0.00,,,0.21,,2013-01-24 13:53:00,
2013-01-24 14:58:00,62.8,37.4,29.23,NE,45,3.5,4.9,39,0.00,,,0.21,,2013-01-24 13:58:00,
2013-01-24 15:13:00,62.2,36.1,29.23,NE,45,2.6,8.0,38,0.00,,,0.21,,2013-01-24 14:13:00,
2013-01-24 15:18:00,60.3,35.1,29.23,NE,45,4.9,6.7,39,0.00,,,0.21,,2013-01-24 14:18:00,
2013-01-24 15:23:00,60.3,35.1,29.23,NE,45,4.4,6.7,39,0.00,,,0.21,,2013-01-24 14:23:00,
2013-01-24 15:28:00,60.4,35.2,29.23,North,0,3.1,3.1,39,0.00,,,0.21,,2013-01-24 14:28:00,
2013-01-24 15:33:00,60.4,35.2,29.23,East,90,4.0,4.0,39,0.00,,,0.21,,2013-01-24 14:33:00,
2013-01-24 15:43:00,60.8,35.6,29.23,NE,45,4.9,6.2,39,0.00,,,0.21,,2013-01-24 14:43:00,
2013-01-24 15:48:00,55.9,32.5,29.23,NE,45,1.7,3.1,41,0.00,,,0.21,,2013-01-24 14:48:00,
2013-01-24 15:58:00,56.7,34.9,29.23,NNE,22,3.1,4.0,44,0.00,,,0.21,,2013-01-24 14:58:00,
2013-01-24 16:03:00,53.4,33.6,29.23,North,0,2.2,3.5,47,0.00,,,0.21,,2013-01-24 15:03:00,
2013-01-24 16:08:00,52.7,34.0,29.23,North,0,3.1,3.1,49,0.00,,,0.21,,2013-01-24 15:08:00,
2013-01-24 16:13:00,56.8,37.8,29.23,NE,45,4.4,5.8,49,0.00,,,0.21,,2013-01-24 15:13:00,
2013-01-24 16:18:00,54.9,35.4,29.23,NE,45,3.5,3.5,48,0.00,,,0.21,,2013-01-24 15:18:00,
2013-01-24 16:23:00,53.2,34.5,29.23,NE,45,3.5,3.5,49,0.00,,,0.21,,2013-01-24 15:23:00,
2013-01-24 16:28:00,54.1,36.3,29.23,NE,45,0.8,1.7,51,0.00,,,0.21,,2013-01-24 15:28:00,
2013-01-24 16:33:00,54.1,36.3,29.23,NNE,22,1.3,3.1,51,0.00,,,0.21,,2013-01-24 15:33:00,
2013-01-24 16:38:00,54.1,36.3,29.23,NE,45,2.6,2.6,51,0.00,,,0.21,,2013-01-24 15:38:00,
2013-01-24 16:43:00,56.3,37.8,29.23,NE,45,0.8,2.6,50,0.00,,,0.21,,2013-01-24 15:43:00,
2013-01-24 16:48:00,56.3,37.2,29.23,NE,45,1.7,2.6,49,0.00,,,0.21,,2013-01-24 15:48:00,
2013-01-24 16:53:00,56.1,37.0,29.23,East,90,3.1,3.5,49,0.00,,,0.21,,2013-01-24 15:53:00,
2013-01-24 16:58:00,52.7,35.1,29.23,NE,45,2.6,4.9,51,0.00,,,0.21,,2013-01-24 15:58:00,
2013-01-24 17:03:00,53.1,35.8,29.23,NE,45,3.1,3.1,52,0.00,,,0.21,,2013-01-24 16:03:00,
2013-01-24 17:08:00,51.1,34.9,29.23,NE,45,3.5,5.8,54,0.00,,,0.21,,2013-01-24 16:08:00,
2013-01-24 17:13:00,50.5,34.9,29.23,NE,45,2.2,4.9,55,0.00,,,0.21,,2013-01-24 16:13:00,
2013-01-24 17:18:00,49.6,35.4,29.23,North,0,2.6,2.6,58,0.00,,,0.21,,2013-01-24 16:18:00,
2013-01-24 17:23:00,49.1,35.8,29.23,East,90,1.3,2.6,60,0.00,,,0.21,,2013-01-24 16:23:00,
2013-01-24 17:28:00,48.7,35.4,29.23,ENE,67,0.8,1.7,60,0.00,,,0.21,,2013-01-24 16:28:00,
2013-01-24 17:33:00,48.2,35.8,29.23,NNE,22,0.4,2.2,62,0.00,,,0.21,,2013-01-24 16:33:00,
2013-01-24 17:38:00,48.2,35.8,29.23,East,90,0.8,0.8,62,0.00,,,0.21,,2013-01-24 16:38:00,
2013-01-24 17:43:00,47.7,35.6,29.23,East,90,0.0,0.4,63,0.00,,,0.21,,2013-01-24 16:43:00,
2013-01-24 17:48:00,47.5,35.8,29.23,NW,315,0.4,0.8,64,0.00,,,0.21,,2013-01-24 16:48:00,
2013-01-24 17:53:00,47.5,35.8,29.23,NW,315,2.6,2.6,64,0.00,,,0.21,,2013-01-24 16:53:00,
2013-01-24 17:58:00,47.5,35.8,29.26,North,0,0.4,1.7,64,0.00,,,0.21,,2013-01-24 16:58:00,
2013-01-24 18:03:00,47.7,35.2,29.26,NE,45,4.4,5.8,62,0.00,,,0.21,,2013-01-24 17:03:00,
2013-01-24 18:08:00,47.7,34.7,29.26,NE,45,2.2,2.6,61,0.00,,,0.21,,2013-01-24 17:08:00,
2013-01-24 18:13:00,47.7,34.7,29.26,East,90,3.5,6.7,61,0.00,,,0.21,,2013-01-24 17:13:00,
2013-01-24 18:18:00,47.8,34.5,29.26,NNE,22,4.0,4.4,60,0.00,,,0.21,,2013-01-24 17:18:00,
2013-01-24 18:23:00,47.7,34.0,29.26,North,0,2.2,4.0,59,0.00,,,0.21,,2013-01-24 17:23:00,
2013-01-24 18:28:00,47.3,34.0,29.26,East,90,1.7,2.2,60,0.00,,,0.21,,2013-01-24 17:28:00,
2013-01-24 18:33:00,47.3,34.0,29.26,East,90,2.2,3.5,60,0.00,,,0.21,,2013-01-24 17:33:00,
2013-01-24 18:38:00,47.1,34.3,29.26,NNE,22,0.8,2.2,61,0.00,,,0.21,,2013-01-24 17:38:00,
2013-01-24 18:43:00,47.1,34.3,29.26,North,0,3.1,4.9,61,0.00,,,0.21,,2013-01-24 17:43:00,
2013-01-24 18:48:00,47.5,34.5,29.26,West,270,1.7,2.2,61,0.00,,,0.21,,2013-01-24 17:48:00,
2013-01-24 18:53:00,46.9,34.2,29.26,NE,45,1.3,3.1,61,0.00,,,0.21,,2013-01-24 17:53:00,
2013-01-24 18:58:00,47.1,34.3,29.26,North,0,4.0,9.8,61,0.00,,,0.21,,2013-01-24 17:58:00,
2013-01-24 19:03:00,47.1,33.8,29.26,NW,315,3.5,8.0,60,0.00,,,0.21,,2013-01-24 18:03:00,
2013-01-24 19:08:00,46.9,33.6,29.29,NNW,337,3.5,6.7,60,0.00,,,0.21,,2013-01-24 18:08:00,
2013-01-24 19:13:00,46.6,33.8,29.29,North,0,5.3,6.2,61,0.00,,,0.21,,2013-01-24 18:13:00,
2013-01-24 19:18:00,46.6,33.8,29.29,NW,315,5.3,7.6,61,0.00,,,0.21,,2013-01-24 18:18:00,
2013-01-24 19:23:00,46.6,33.8,29.29,North,0,2.2,2.2,61,0.00,,,0.21,,2013-01-24 18:23:00,
2013-01-24 19:28:00,46.0,34.0,29.29,North,0,4.9,4.9,63,0.00,,,0.21,,2013-01-24 18:28:00,
2013-01-24 19:33:00,46.2,34.2,29.29,North,0,4.4,8.5,63,0.00,,,0.21,,2013-01-24 18:33:00,
2013-01-24 19:38:00,46.0,34.0,29.29,North,0,3.1,8.5,63,0.00,,,0.21,,2013-01-24 18:38:00,
2013-01-24 19:43:00,45.7,34.2,29.29,NE,45,3.5,4.9,64,0.00,,,0.21,,2013-01-24 18:43:00,
2013-01-24 19:48:00,45.7,34.2,29.29,North,0,2.6,3.1,64,0.00,,,0.21,,2013-01-24 18:48:00,
2013-01-24 19:53:00,45.7,34.2,29.29,North,0,4.4,8.9,64,0.00,,,0.21,,2013-01-24 18:53:00,
2013-01-24 19:58:00,45.5,34.0,29.29,North,0,4.0,4.4,64,0.00,,,0.21,,2013-01-24 18:58:00,
2013-01-24 20:03:00,45.5,34.0,29.29,East,90,4.0,5.3,64,0.00,,,0.21,,2013-01-24 19:03:00,
2013-01-24 20:08:00,45.1,33.6,29.29,North,0,4.4,4.4,64,0.00,,,0.21,,2013-01-24 19:08:00,
2013-01-24 20:13:00,45.1,33.6,29.29,NE,45,4.9,6.2,64,0.00,,,0.21,,2013-01-24 19:13:00,
2013-01-24 20:18:00,45.0,33.8,29.29,North,0,2.6,3.1,65,0.00,,,0.21,,2013-01-24 19:18:00,
2013-01-24 20:23:00,44.8,33.6,29.29,East,90,1.7,4.4,65,0.00,,,0.21,,2013-01-24 19:23:00,
2013-01-24 20:28:00,44.8,34.0,29.29,NNW,337,4.0,4.0,66,0.00,,,0.21,,2013-01-24 19:28:00,
2013-01-24 20:33:00,44.8,34.0,29.29,North,0,2.2,2.2,66,0.00,,,0.21,,2013-01-24 19:33:00,
2013-01-24 20:38:00,44.6,34.2,29.29,East,90,1.3,2.2,67,0.00,,,0.21,,2013-01-24 19:38:00,
2013-01-24 20:43:00,44.4,34.0,29.29,East,90,2.2,2.2,67,0.00,,,0.21,,2013-01-24 19:43:00,
2013-01-24 20:48:00,44.2,33.8,29.29,NE,45,4.0,4.0,67,0.00,,,0.21,,2013-01-24 19:48:00,
2013-01-24 20:53:00,44.4,34.0,29.29,East,90,3.5,4.0,67,0.00,,,0.21,,2013-01-24 19:53:00,
2013-01-24 20:58:00,44.2,33.8,29.29,NE,45,4.0,4.9,67,0.00,,,0.21,,2013-01-24 19:58:00,
2013-01-24 21:03:00,44.4,34.0,29.29,East,90,2.2,4.4,67,0.00,,,0.21,,2013-01-24 20:03:00,
2013-01-24 21:13:00,44.2,33.8,29.29,NE,45,3.1,5.8,67,0.00,,,0.21,,2013-01-24 20:13:00,
2013-01-24 21:18:00,44.2,34.3,29.29,East,90,4.9,4.9,68,0.00,,,0.21,,2013-01-24 20:18:00,
2013-01-24 21:23:00,44.2,33.8,29.29,East,90,2.6,3.5,67,0.00,,,0.21,,2013-01-24 20:23:00,
2013-01-24 21:28:00,44.2,34.3,29.29,East,90,4.0,4.9,68,0.00,,,0.21,,2013-01-24 20:28:00,
2013-01-24 21:33:00,44.2,34.3,29.29,East,90,2.6,2.6,68,0.00,,,0.21,,2013-01-24 20:33:00,
2013-01-24 21:38:00,44.2,34.3,29.29,East,90,2.2,4.9,68,0.00,,,0.21,,2013-01-24 20:38:00,
2013-01-24 21:43:00,44.1,34.2,29.29,North,0,2.2,2.2,68,0.00,,,0.21,,2013-01-24 20:43:00,
2013-01-24 21:48:00,44.1,34.2,29.32,West,270,0.8,0.8,68,0.00,,,0.21,,2013-01-24 20:48:00,
2013-01-24 21:53:00,43.9,34.0,29.32,East,90,2.2,4.0,68,0.00,,,0.21,,2013-01-24 20:53:00,
2013-01-24 21:58:00,43.9,34.0,29.32,East,90,1.3,2.2,68,0.00,,,0.21,,2013-01-24 20:58:00,
2013-01-24 22:03:00,43.9,34.0,29.32,East,90,1.3,3.1,68,0.00,,,0.21,,2013-01-24 21:03:00,
2013-01-24 22:08:00,43.9,34.0,29.32,East,90,1.7,3.1,68,0.00,,,0.21,,2013-01-24 21:08:00,
2013-01-24 22:13:00,43.9,34.0,29.32,East,90,2.2,2.2,68,0.00,,,0.21,,2013-01-24 21:13:00,
2013-01-24 22:18:00,43.7,33.8,29.32,ENE,67,4.9,4.9,68,0.00,,,0.21,,2013-01-24 21:18:00,
2013-01-24 22:23:00,43.7,33.8,29.32,NE,45,4.4,5.8,68,0.00,,,0.21,,2013-01-24 21:23:00,
2013-01-24 22:28:00,43.7,33.4,29.32,East,90,2.2,3.5,67,0.00,,,0.21,,2013-01-24 21:28:00,
2013-01-24 22:33:00,43.7,33.4,29.32,East,90,0.8,1.7,67,0.00,,,0.21,,2013-01-24 21:33:00,
2013-01-24 22:38:00,43.5,33.3,29.32,NE,45,2.2,4.0,67,0.00,,,0.21,,2013-01-24 21:38:00,
2013-01-24 22:43:00,43.5,33.3,29.32,NE,45,2.6,4.4,67,0.00,,,0.21,,2013-01-24 21:43:00,
2013-01-24 22:48:00,43.5,33.3,29.32,NE,45,3.5,4.4,67,0.00,,,0.21,,2013-01-24 21:48:00,
2013-01-24 22:53:00,43.5,33.3,29.32,NE,45,3.5,4.4,67,0.00,,,0.21,,2013-01-24 21:53:00,
2013-01-24 22:58:00,43.2,32.9,29.32,East,90,1.3,6.2,67,0.00,,,0.21,,2013-01-24 21:58:00,
2013-01-24 23:03:00,43.2,32.9,29.32,East,90,2.6,6.2,67,0.00,,,0.21,,2013-01-24 22:03:00,
2013-01-24 23:08:00,43.0,32.7,29.32,North,0,0.4,1.7,67,0.00,,,0.21,,2013-01-24 22:08:00,
2013-01-24 23:13:00,43.0,32.7,29.32,North,0,1.3,2.2,67,0.00,,,0.21,,2013-01-24 22:13:00,
2013-01-24 23:18:00,43.0,32.7,29.32,North,0,1.3,2.2,67,0.00,,,0.21,,2013-01-24 22:18:00,
2013-01-24 23:23:00,43.0,32.7,29.32,North,0,1.3,2.2,67,0.00,,,0.21,,2013-01-24 22:23:00,
2013-01-24 23:28:00,43.0,32.7,29.32,North,0,2.6,2.6,67,0.00,,,0.21,,2013-01-24 22:28:00,
2013-01-24 23:33:00,42.6,33.1,29.32,North,0,2.6,2.6,69,0.00,,,0.21,,2013-01-24 22:33:00,
2013-01-24 23:38:00,42.3,32.7,29.32,North,0,0.4,2.2,69,0.00,,,0.21,,2013-01-24 22:38:00,
2013-01-24 23:43:00,42.3,32.7,29.32,North,0,1.7,2.2,69,0.00,,,0.21,,2013-01-24 22:43:00,
2013-01-24 23:48:00,41.9,32.4,29.32,East,90,0.8,2.2,69,0.00,,,0.21,,2013-01-24 22:48:00,
2013-01-24 23:53:00,41.9,32.7,29.32,ENE,67,2.2,2.6,70,0.00,,,0.21,,2013-01-24 22:53:00,
2013-01-24 23:58:00,41.7,32.5,29.29,NE,45,2.2,3.1,70,0.00,,,0.21,,2013-01-24 22:58:00,